Location: La Pernelle
(49.6188°N, 1.2999°W)
Time: 15:52:54
(UTC+00:00)

CENTAUR R/B - Pass Details

Date: 12 June 2021
Orbit: 740 x 1447 km, 63.4° (Epoch: 17 July)

Event Time Altitude Azimuth Distance (km) Brightness Sun altitude
Rises 23:19:35 0° 254° (WSW) 3,539 5.4 -16.5°
Reaches altitude 10° 23:22:05 10° 262° (W) 2,692 4.8 -16.5°
Maximum altitude 23:28:05 41° 332° (NNW) 1,519 4.0 -16.7°
Drops below altitude 10° 23:35:13 10° 42° (NE) 3,190 5.7 -16.9°
Sets 23:38:27 0° 49° (NE) 4,264 6.3 -16.9°
